User: anonymous   Login
Location: Unspecified
(0.0000°N, 0.0000°E)
Time: 17:49:18
(UTC+00:00)
Language:

PAYLOAD C - Orbit

View from above orbital plane
View from above orbital plane
View from above satellite
View from above satellite

Ground track
Ground track

The orbit data is extracted from the following two-line orbital elements,

1 27057U 01058C   18049.75071804 +.00000009 +00000-0 -99538-5 0  9998
2 27057 082.5476 000.4942 0002200 080.9488 279.1851 12.61545358743473
Epoch (UTC): 18 February 2018 18:01:02
Eccentricity: 0.0002200
inclination: 82.5476°
perigee height: 1415 km
apogee height: 1418 km
right ascension of ascending node: 0.4942°
argument of perigee: 80.9488°
revolutions per day: 12.61545358
mean anomaly at epoch: 279.1851°
orbit number at epoch: 74347

The dashed part of the orbit path shows where the satellite is in the earth's shadow,  

DLR